User: anonymous   Login
Location: ??????
(41.3164°N, 22.6615°E)
Time: 11:24:57
(UTC+00:00)
Language:

NOAA 16 DEB - Orbit

View from above orbital plane
View from above orbital plane
View from above satellite
View from above satellite

Ground track
Ground track

The orbit data is extracted from the following two-line orbital elements,

1 41374U 00055JT  22228.96246318  .00001260  00000-0  75282-3 0  9990
2 41374  98.7994 285.8350 0038489 193.2289 166.7875 14.08596085337586
Epoch (UTC): 16 August 2022 23:05:56
Eccentricity: 0.0038489
inclination: 98.7994°
perigee height: 836 km
apogee height: 892 km
right ascension of ascending node: 285.8350°
argument of perigee: 193.2289°
revolutions per day: 14.08596085
mean anomaly at epoch: 166.7875°
orbit number at epoch: 33758

The dashed part of the orbit path shows where the satellite is in the earth's shadow,  

DLR